Lone Rock, WI

3:05 PM CST on December 02, 2016 (GMT -0600)
Tri-County Regional

Weather History for KLNR - April, 2013

Change the Weather History Date:

Wednesday, April 24, 2013

  Actual Average Record
Temperature  
Mean Temperature 43 °F -  
Max Temperature 54 °F 60 °F 78 °F (1998)
Min Temperature 32 °F 37 °F 25 °F (2015)
Degree Days  
Heating Degree Days 22    
Moisture  
Dew Point 24 °F    
Average Humidity 50    
Maximum Humidity 76    
Minimum Humidity 28    
Precipitation  
Precipitation 0.00 in - - ()
Sea Level Pressure  
Sea Level Pressure 30.02 in    
Wind  
Wind Speed 8 mph (West)    
Max Wind Speed 15 mph    
Max Gust Speed 29 mph    
Visibility 10 miles    
Events Rain    
Averages and records for this station are not official NWS values.
T = Trace of Precipitation, MM = Missing Value Source: NWS Daily Summary

Daily Weather History Graph

Daily Weather History Graph

Search for Another Location

Airport or City:

Trip Planner

Search our weather history database for the weather conditions in past years. The results will help you decide how hot, cold, wet, or windy it might be!

Date:

Astronomy

Apr. 24, 2013 Rise Set
Actual Time 6:03 AM CDT 7:54 PM CDT
Civil Twilight 5:33 AM CDT 8:24 PM CDT
Nautical Twilight 4:56 AM CDT 9:02 PM CDT
Astronomical Twilight 4:16 AM CDT 9:42 PM CDT
Moon 6:57 PM CDT (4/24) 5:09 AM CDT (4/24)
Length of Visible Light 14h 51m
Length of Day
13h 50m
Waxing Gibbous, 98% of the Moon is Illuminated
Apr 24
Waxing Gibbous
Apr 25
Full
May 2
Last Quarter
May 9
New
May 17
First Quarter

Hourly Weather History & Observations

Time (CDT) Temp. Windchill Dew Point Humidity Pressure Visibility Wind Dir Wind Speed Gust Speed Precip Events Conditions
12:56 AM 37.0 °F 33.3 °F 27.0 °F 67% 30.03 in 10.0 mi NNW 4.6 mph - N/A   Partly Cloudy
1:56 AM 36.0 °F 32.1 °F 26.1 °F 67% 30.04 in 10.0 mi West 4.6 mph - N/A   Clear
2:56 AM 36.0 °F 31.1 °F 26.1 °F 67% 30.04 in 10.0 mi WNW 5.8 mph - N/A   Clear
3:56 AM 34.0 °F 29.8 °F 25.0 °F 70% 30.01 in 10.0 mi NW 4.6 mph - N/A   Clear
4:56 AM 34.0 °F 28.0 °F 25.0 °F 70% 30.03 in 10.0 mi WNW 6.9 mph - N/A   Clear
5:56 AM 34.0 °F 28.0 °F 25.0 °F 70% 30.04 in 10.0 mi WNW 6.9 mph - N/A   Clear
6:56 AM 32.0 °F 25.6 °F 24.1 °F 73% 30.05 in 10.0 mi WNW 6.9 mph - N/A   Clear
7:56 AM 36.0 °F 28.5 °F 24.1 °F 62% 30.07 in 10.0 mi WNW 10.4 mph - N/A   Clear
8:56 AM 37.9 °F 31.5 °F 23.0 °F 55% 30.06 in 10.0 mi West 9.2 mph - N/A   Clear
9:56 AM 43.0 °F 37.7 °F 21.0 °F 42% 30.05 in 10.0 mi West 9.2 mph - N/A   Clear
10:56 AM 44.1 °F 41.5 °F 18.0 °F 35% 30.05 in 10.0 mi WNW 4.6 mph - N/A   Clear
11:56 AM 46.0 °F 41.4 °F 19.0 °F 34% 30.03 in 10.0 mi SW 9.2 mph - N/A   Clear
12:56 PM 48.0 °F - 19.9 °F 33% 30.03 in 10.0 mi WSW 15.0 mph 21.9 mph N/A   Clear
1:56 PM 51.1 °F - 19.9 °F 29% 30.01 in 10.0 mi West 11.5 mph 23.0 mph N/A   Clear
2:56 PM 52.0 °F - 19.9 °F 28% 30.01 in 10.0 mi WSW 15.0 mph 21.9 mph N/A   Clear
3:56 PM 53.1 °F - 23.0 °F 31% 30.00 in 10.0 mi WSW 15.0 mph - N/A   Clear
4:56 PM 53.1 °F - 24.1 °F 32% 30.00 in 10.0 mi West 13.8 mph 24.2 mph N/A   Clear
5:56 PM 54.0 °F - 25.0 °F 33% 29.99 in 10.0 mi West 13.8 mph 18.4 mph N/A   Mostly Cloudy
6:56 PM 52.0 °F - 25.0 °F 35% 29.99 in 10.0 mi WSW 11.5 mph - N/A   Overcast
7:56 PM 50.0 °F - 24.1 °F 36% 29.99 in 10.0 mi SW 10.4 mph - N/A   Mostly Cloudy
8:56 PM 48.9 °F - 25.0 °F 39% 29.98 in 10.0 mi SSW 8.1 mph - N/A   Mostly Cloudy
9:56 PM 48.0 °F - 26.1 °F 42% 29.99 in 10.0 mi SW 11.5 mph - N/A   Overcast
10:56 PM 44.1 °F 37.4 °F 34.0 °F 68% 30.01 in 9.0 mi WSW 13.8 mph 28.8 mph 0.00 in Rain Light Rain
11:56 PM 43.0 °F 37.2 °F 36.0 °F 76% 29.99 in 10.0 mi WSW 10.4 mph 17.3 mph 0.00 in   Overcast